Temperature
17 17 16 16 16 16 16 16 15 15 15 15 15 15 14 14 14 14 14 14 14 14 13 13 13 13 13 13 13 13 13 13 13 14 14 14 14 14 14 14 14 15 15
17 16 16 16 16 16 16 15 15 15 15 15 15 15 14 14 14 14 14 14 14 14 13 13 13 13 13 13 13 13 13 13 13 13 14 14 14 14 14 14 14 14 14
16 16 16 16 16 16 15 15 15 15 15 15 14 14 14 14 14 14 14 14 14 14 13 13 13 13 13 13 13 13 13 13 13 13 13 13 13 14 14 14 14 14 14
16 16 16 16 15 15 15 15 15 15 14 14 14 14 14 14 14 14 14 13 13 13 13 13 13 13 13 13 13 13 13 13 13 13 13 13 13 13 13 14 14 14 14
16 16 15 15 15 15 15 15 14 14 14 14 14 14 14 14 13 13 13 13 13 13 13 13 13 12 12 13 13 13 13 12 12 12 13 13 13 13 13 13 13 13 14
16 16 15 15 15 14 14 14 14 14 14 13 13 13 13 13 13 13 13 13 13 13 12 12 12 12 12 12 12 12 12 12 12 12 12 12 12 12 12 12 13 13 13
16 15 15 15 15 14 14 14 14 13 13 13 13 13 13 13 12 12 12 12 12 12 12 12 12 12 12 12 12 12 12 12 11 11 12 12 12 12 12 12 12 12 12
15 15 15 14 14 14 14 14 13 13 13 13 12 12 12 12 12 12 12 12 12 12 11 11 11 11 11 11 11 12 12 12 11 11 11 11 11 11 11 11 11 12 12
15 15 14 14 14 14 13 13 13 13 12 12 12 12 12 12 12 11 11 11 11 11 11 11 11 11 11 11 11 11 11 11 11 11 11 11 11 11 11 11 11 11 11
15 14 14 14 14 13 13 13 12 12 12 12 11 11 11 11 11 11 11 11 11 11 11 11 11 11 11 10 10 11 11 11 11 11 11 11 11 11 11 10 10 10 10
14 14 14 14 13 13 13 12 12 12 12 11 11 11 11 11 11 11 11 10 10 10 10 10 10 10 10 10 10 10 10 10 10 10 10 10 11 11 10 10 10 10 10
14 14 14 13 13 13 12 12 12 11 11 11 11 11 11 10 10 10 10 10 10 10 10 10 10 10 10 10 9 9 9 9 10 10 10 10 10 10 10 10 10 10 10
14 13 13 13 13 12 12 12 11 11 11 11 11 10 10 10 10 10 10 10 9 9 9 9 9 9 9 9 9 9 9 9 9 9 9 9 9 9 9 9 10 9 9
13 13 13 12 12 12 12 11 11 11 11 10 10 10 10 9 9 9 9 9 9 9 9 9 9 9 9 9 9 9 9 8 8 8 8 9 9 9 9 9 9 9 9
13 13 12 12 12 12 11 11 11 10 10 10 10 9 9 9 9 9 8 9 8 8 8 8 9 9 8 8 8 8 8 8 8 8 8 8 8 8 8 8 8 8 8
12 12 12 12 11 11 11 10 10 10 10 9 9 9 9 8 8 8 8 8 8 8 8 8 8 8 8 8 8 8 8 8 7 7 7 7 7 7 7 7 7 7 7
12 12 11 11 11 10 10 10 10 10 9 9 9 9 8 8 8 8 8 8 8 8 7 7 7 7 7 7 7 7 7 7 7 7 7 7 7 7 7 7 7 7 7
11 11 11 10 10 10 10 9 9 9 9 9 9 8 8 8 8 8 7 7 7 7 7 7 7 7 6 6 6 6 6 6 6 6 6 6 6 6 6 6 6 6 6
11 11 10 10 10 9 9 9 9 9 8 8 8 8 8 8 7 7 7 7 6 6 6 6 6 6 6 6 6 6 6 6 6 6 6 6 6 5 5 5 6 6 6
10 10 10 9 9 9 9 8 8 8 8 8 8 7 7 7 7 7 6 6 6 6 6 6 6 6 5 5 5 5 5 5 5 5 5 5 5 5 5 5 5 5 5
10 10 9 9 9 8 8 8 8 8 7 7 7 7 7 6 6 6 6 6 6 5 5 5 5 5 5 5 5 5 5 5 5 5 5 5 5 4 4 5 5 5 5
9 9 9 8 8 8 8 8 7 7 7 7 7 7 6 6 6 6 6 5 5 5 5 5 5 5 5 5 4 4 4 4 4 4 4 4 4 4 4 4 4 4 4
9 9 8 8 8 7 7 7 7 7 7 6 6 6 6 6 5 5 5 5 5 5 4 4 4 4 4 4 4 4 4 4 4 3 3 3 3 3 3 3 4 4 4
8 8 8 7 7 7 7 7 6 6 6 6 6 6 5 5 5 5 5 5 4 4 4 4 4 4 4 4 4 4 3 3 3 3 3 3 3 3 3 3 3 3 3
8 7 7 7 7 7 6 6 6 6 6 5 5 5 5 5 5 4 4 4 4 4 4 4 4 3 3 3 3 3 3 3 3 3 2 2 2 2 2 2 2 2 2
7 7 7 6 6 6 6 6 5 5 5 5 5 5 4 4 4 4 4 4 4 3 3 3 3 3 3 3 3 3 3 2 2 2 2 2 2 2 2 2 2 2 2
Wind_Speed
3 3 3 2 2 2 2 1 1 1 1 1 1 2 2 2 2 2 2 2 2 3 3 2 2 2 2 1 1 0 1 2 2 3 2 3 3 4 5 5 4 3 3
4 4 4 3 3 3 2 2 2 2 2 2 2 2 2 2 2 2 2 2 2 2 3 3 3 2 2 2 1 1 1 2 2 3 3 2 3 3 4 4 4 3 3
5 5 4 4 4 3 2 2 3 3 3 3 3 3 3 3 2 2 2 2 2 2 2 2 3 2 2 2 2 1 1 1 1 2 3 2 2 2 3 3 3 3 3
5 5 4 3 3 3 3 3 3 3 3 3 3 3 3 3 3 3 2 3 3 3 2 2 2 2 2 2 2 2 1 1 1 1 2 2 2 3 2 2 3 3 3
6 5 3 3 3 4 4 4 4 4 4 3 3 4 3 3 3 3 2 3 3 3 4 3 3 3 3 2 2 2 1 1 1 1 2 2 3 2 2 2 3 4 3
6 4 3 4 4 4 4 4 4 4 3 4 4 3 4 3 5 4 3 2 2 3 3 4 4 4 5 6 6 4 2 1 2 2 2 3 4 3 3 3 2 3 3
5 4 3 4 4 3 3 4 4 3 3 4 3 3 3 4 6 5 4 2 2 2 2 3 4 5 5 4 6 6 5 4 3 3 3 5 4 4 3 3 3 4 5
5 4 3 4 3 3 3 3 2 2 2 2 2 2 2 4 6 5 5 2 2 2 2 3 3 5 5 4 4 4 5 5 5 4 5 6 6 5 4 4 5 4 4
5 4 3 4 4 3 3 1 1 2 2 1 1 2 2 4 6 6 4 2 2 4 4 3 4 4 7 7 3 4 6 6 7 7 8 9 10 9 6 2 3 3 5
5 4 4 4 4 4 3 1 1 1 0 1 1 2 2 3 6 6 4 1 2 4 4 4 6 6 8 7 3 4 6 7 6 7 7 7 7 8 7 5 5 5 5
5 4 4 4 4 4 2 1 1 1 1 1 2 3 3 4 6 6 5 1 2 3 4 4 5 9 10 9 6 4 8 8 5 5 6 6 5 4 5 5 6 6 6
5 4 3 3 3 3 3 2 1 2 1 1 2 3 4 4 5 6 7 6 4 3 5 5 6 10 10 10 7 8 10 8 4 4 5 6 6 6 6 6 7 8 9
5 4 3 3 2 3 3 2 1 1 1 1 1 3 4 4 5 8 8 9 8 4 5 8 10 11 10 8 9 11 8 4 4 5 6 6 6 6 5 5 5 7 8
6 4 3 3 2 1 1 2 2 2 1 1 2 3 4 4 5 4 5 6 7 6 6 8 10 9 6 7 8 6 5 5 5 6 6 6 5 5 5 5 5 5 6
5 4 3 2 2 1 1 2 3 3 4 3 3 3 3 5 6 8 6 5 5 6 6 4 4 4 4 5 5 5 5 4 5 5 6 7 6 6 6 5 5 5 7
5 3 3 2 2 1 1 2 3 4 5 5 5 5 5 7 10 10 11 11 11 9 5 4 5 5 5 6 6 6 5 6 6 6 6 7 7 7 8 6 5 6 8
5 4 3 2 2 2 1 1 2 4 5 5 6 6 7 8 9 10 10 10 9 7 3 4 5 6 6 6 6 6 7 7 6 6 7 7 7 8 8 8 7 7 8
5 5 4 3 3 2 2 2 2 2 4 5 6 9 9 9 9 9 9 6 5 5 4 5 6 6 6 7 7 7 7 7 6 7 7 7 7 8 8 8 8 9 9
5 4 4 3 3 3 2 2 2 3 4 5 5 6 9 9 9 8 7 3 5 6 6 6 6 6 7 7 7 7 7 7 8 7 8 8 8 8 8 9 9 11 10
4 5 4 3 2 2 2 2 3 4 4 5 5 6 5 4 4 5 5 4 5 6 7 7 7 7 7 7 7 7 7 8 8 8 8 8 7 7 9 10 9 9 9
4 4 4 2 3 3 3 4 4 4 5 6 7 7 8 5 6 7 6 6 6 7 7 7 7 7 7 7 6 7 8 8 7 7 7 7 7 8 8 9 9 9 9
4 3 3 3 3 3 4 4 5 5 6 7 7 7 10 6 6 7 7 7 7 7 7 7 7 7 7 7 7 7 8 8 8 8 8 8 8 8 9 9 9 9 9
3 3 3 3 3 4 4 4 5 6 6 7 7 7 6 6 7 7 7 7 7 7 7 7 7 7 7 8 8 7 8 8 8 8 9 9 9 8 9 9 11 11 10
3 4 4 3 3 4 4 5 5 6 6 7 7 7 7 7 8 8 8 7 7 7 8 7 8 10 11 10 10 10 11 11 11 9 10 10 10 9 9 10 11 12 11
4 4 4 4 4 5 5 6 6 6 7 7 7 7 7 8 8 8 7 7 8 8 9 9 9 10 12 13 13 13 15 17 16 13 10 9 11 11 10 11 11 11 11
4 4 4 4 4 5 5 6 6 7 7 7 7 8 8 8 8 8 7 7 7 7 8 8 10 12 13 13 14 16 17 18 18 18 13 9 11 11 11 10 12 11 11
Wind_Direction
126 117 105 91 88 95 91 72 61 41 50 61 56 53 38 26 26 40 14 14 22 2 4 14 351 345 356 352 1 170 188 178 235 285 282 301 320 323 330 333 322 307 290
122 109 102 92 83 76 64 48 60 60 49 54 61 61 45 36 30 33 16 20 28 6 355 11 350 2 4 351 357 334 259 217 216 281 305 316 312 315 318 319 323 315 294
113 104 93 84 79 71 57 52 60 68 59 51 61 60 47 38 33 26 32 30 30 12 3 11 346 9 356 344 351 342 317 312 224 251 291 300 305 322 331 326 322 322 310
116 106 97 89 89 81 67 62 64 73 71 59 55 51 49 45 38 31 38 37 25 12 7 4 348 347 315 317 334 323 327 335 317 291 295 305 301 312 328 330 327 322 310
118 109 107 100 89 80 71 64 63 66 68 65 59 42 35 42 40 43 42 41 30 16 7 0 354 357 354 342 336 311 315 312 313 304 302 312 309 320 310 304 303 308 300
121 120 110 101 90 83 79 73 66 58 53 60 56 46 33 29 30 43 58 46 32 20 358 347 347 360 357 355 349 341 324 277 268 270 283 286 287 279 282 293 297 310 300
125 119 113 111 102 94 88 78 69 60 58 56 45 43 24 0 18 32 42 63 33 359 341 337 346 355 355 341 339 343 332 314 277 242 254 263 269 267 270 281 273 268 268
130 127 127 121 113 102 93 85 68 64 63 53 34 26 15 357 12 21 28 43 9 331 313 303 307 316 326 335 331 330 316 304 287 268 249 257 261 256 242 255 264 275 279
144 150 152 144 132 120 112 107 92 79 53 32 17 16 1 335 354 6 24 18 344 320 310 304 299 295 315 331 327 311 309 305 298 286 282 282 283 279 267 263 273 276 283
169 167 159 153 147 147 155 148 123 120 115 32 7 346 328 318 338 353 5 4 326 314 313 309 307 308 315 321 300 289 295 295 302 307 302 298 290 284 272 241 238 252 266
160 149 143 149 152 153 143 131 118 100 69 24 351 332 327 321 329 338 344 332 289 293 298 300 297 308 310 311 303 274 280 294 292 291 295 293 290 281 270 254 242 242 251
141 139 140 141 147 139 135 126 113 111 88 351 340 330 323 320 322 322 327 319 308 276 278 280 287 301 304 305 300 293 297 304 293 292 293 289 287 284 279 269 259 254 252
137 140 145 138 136 142 146 147 133 131 148 278 299 305 309 312 313 319 322 318 310 291 279 287 295 302 305 302 297 301 304 296 285 283 282 279 273 273 278 281 276 270 268
143 150 149 142 140 138 150 162 165 188 216 247 269 281 293 303 302 305 308 309 306 299 294 298 301 301 295 292 301 300 288 276 277 273 278 278 280 280 278 275 279 280 282
148 155 157 158 162 167 189 208 206 220 215 222 237 244 265 288 290 299 305 301 296 290 299 298 298 301 302 298 294 288 283 283 280 276 278 282 283 281 280 273 266 270 271
151 163 170 173 179 185 214 296 279 255 268 261 255 256 260 269 291 303 307 304 303 303 301 284 281 281 282 286 289 292 288 281 278 278 278 279 281 281 281 276 266 266 271
162 172 175 178 183 191 198 218 291 313 308 296 291 293 290 294 297 299 303 306 306 306 284 274 276 278 278 278 279 280 282 281 278 276 276 275 278 281 280 278 272 269 270
165 173 172 182 190 195 206 219 228 259 298 304 303 300 302 301 300 300 304 314 313 310 275 274 276 277 277 278 278 278 280 283 282 280 277 274 272 275 278 277 273 269 272
171 179 182 186 191 199 212 227 241 253 264 279 293 300 299 299 300 299 305 291 286 289 285 278 275 275 276 276 276 275 276 278 279 279 277 273 271 271 273 273 273 272 271
184 191 184 185 195 209 224 236 252 259 266 270 274 279 293 302 299 297 290 278 276 278 279 279 279 276 275 274 274 276 277 276 276 276 277 277 273 269 271 273 273 273 271
182 194 198 197 212 223 232 241 249 254 260 266 268 269 274 274 273 276 278 278 276 277 277 277 277 277 275 274 274 276 278 280 279 279 280 278 276 274 273 271 271 270 270
181 193 199 211 226 235 244 246 250 256 262 267 275 280 281 273 269 273 274 276 275 273 273 273 274 272 270 269 271 272 275 279 281 280 280 280 276 273 272 272 272 270 268
182 196 211 226 233 250 258 257 257 260 265 268 272 276 278 274 273 273 274 275 276 277 276 272 272 275 273 269 265 263 267 272 276 277 279 281 279 276 271 270 272 273 268
191 204 217 232 238 243 253 261 262 264 266 269 272 272 272 272 274 273 274 276 277 278 278 275 271 273 274 275 273 268 267 270 273 272 271 275 277 276 274 271 270 270 267
204 214 223 232 240 248 256 262 265 268 270 272 274 274 274 273 273 275 274 275 277 280 280 280 278 277 276 275 275 276 276 274 274 275 273 271 272 271 269 269 269 271 266
216 223 230 236 241 248 254 261 266 270 272 273 274 273 272 272 274 275 275 276 279 280 281 282 281 280 281 280 279 279 279 279 278 278 276 272 271 270 268 265 265 263 265
Height
1540 1541 1542 1543 1544 1544 1545 1545 1545 1545 1545 1544 1544 1543 1543 1542 1541 1540 1539 1538 1538 1537 1536 1535 1534 1534 1533 1533 1532 1532 1531 1531 1530 1529 1529 1528 1528 1527 1527 1527 1527 1527 1528
1539 1540 1541 1542 1543 1543 1544 1544 1544 1544 1544 1543 1543 1542 1542 1541 1540 1540 1539 1538 1537 1536 1536 1535 1534 1533 1532 1532 1531 1531 1530 1530 1529 1527 1527 1527 1526 1526 1525 1525 1525 1525 1526
1538 1539 1540 1541 1542 1542 1543 1543 1543 1543 1543 1542 1542 1541 1541 1540 1539 1539 1538 1537 1537 1536 1535 1534 1533 1532 1532 1531 1530 1529 1529 1528 1527 1526 1525 1525 1524 1524 1523 1523 1523 1523 1523
1538 1539 1539 1540 1541 1541 1541 1542 1541 1541 1541 1541 1541 1540 1540 1539 1538 1538 1537 1536 1536 1535 1534 1533 1532 1531 1530 1530 1529 1528 1527 1526 1525 1524 1523 1523 1522 1522 1521 1521 1520 1521 1521
1537 1538 1539 1539 1540 1540 1540 1540 1540 1540 1540 1540 1539 1539 1538 1538 1537 1536 1536 1535 1534 1533 1533 1532 1531 1530 1529 1528 1527 1526 1525 1524 1523 1522 1521 1520 1520 1519 1519 1518 1518 1517 1517
1535 1537 1538 1538 1539 1539 1540 1540 1539 1539 1539 1539 1538 1538 1537 1536 1536 1535 1534 1533 1533 1532 1531 1530 1529 1528 1527 1526 1525 1524 1523 1522 1521 1520 1518 1518 1517 1517 1516 1516 1515 1514 1513
1534 1535 1536 1537 1538 1538 1539 1539 1539 1538 1538 1538 1537 1536 1536 1535 1534 1534 1533 1532 1531 1530 1529 1528 1527 1526 1525 1524 1523 1522 1521 1520 1519 1518 1516 1515 1515 1514 1513 1512 1512 1511 1510
1533 1534 1535 1536 1537 1537 1537 1538 1537 1537 1537 1536 1536 1535 1534 1533 1533 1532 1531 1530 1529 1528 1527 1526 1525 1524 1523 1521 1520 1519 1518 1517 1516 1515 1514 1513 1512 1511 1510 1509 1508 1507 1506
1531 1532 1533 1534 1535 1536 1536 1536 1536 1536 1535 1535 1534 1534 1533 1532 1531 1530 1529 1528 1527 1526 1525 1524 1523 1521 1520 1518 1517 1515 1514 1514 1513 1511 1510 1509 1508 1507 1506 1505 1504 1502 1500
1529 1531 1532 1533 1534 1534 1535 1535 1535 1535 1534 1534 1533 1532 1531 1530 1529 1528 1527 1525 1524 1523 1522 1521 1520 1518 1517 1515 1514 1512 1510 1509 1508 1506 1505 1504 1503 1502 1502 1501 1499 1498 1496
1528 1529 1530 1531 1532 1533 1533 1533 1533 1533 1533 1532 1531 1530 1529 1528 1527 1525 1524 1523 1521 1520 1518 1517 1516 1515 1513 1512 1510 1508 1506 1505 1503 1501 1500 1498 1497 1497 1496 1495 1494 1493 1491
1526 1527 1528 1529 1530 1531 1531 1531 1531 1531 1530 1530 1529 1528 1527 1526 1524 1523 1521 1520 1518 1516 1515 1513 1512 1510 1509 1507 1506 1504 1502 1500 1498 1496 1494 1493 1491 1490 1489 1488 1487 1486 1485
1524 1525 1526 1527 1528 1529 1529 1529 1529 1528 1528 1527 1526 1525 1524 1523 1521 1520 1518 1516 1514 1513 1511 1509 1508 1506 1504 1503 1501 1499 1497 1495 1493 1491 1489 1487 1486 1484 1483 1481 1480 1479 1477
1521 1523 1524 1525 1526 1526 1526 1526 1526 1526 1525 1524 1523 1522 1521 1519 1518 1516 1514 1512 1510 1508 1506 1504 1503 1501 1499 1498 1496 1494 1492 1490 1488 1486 1483 1481 1480 1478 1476 1475 1473 1471 1469
1519 1520 1521 1522 1523 1523 1523 1524 1523 1523 1522 1521 1520 1519 1517 1515 1514 1513 1510 1508 1506 1503 1501 1499 1496 1495 1493 1491 1490 1488 1486 1484 1482 1480 1478 1475 1473 1471 1470 1468 1466 1465 1462
1516 1517 1519 1519 1520 1520 1520 1521 1520 1520 1519 1518 1517 1516 1514 1512 1510 1508 1506 1504 1501 1498 1496 1493 1491 1489 1487 1485 1483 1481 1480 1478 1476 1474 1471 1469 1467 1465 1463 1461 1460 1458 1455
1513 1514 1515 1516 1517 1517 1517 1517 1516 1516 1515 1514 1513 1512 1510 1508 1506 1504 1501 1498 1496 1493 1490 1488 1485 1483 1481 1479 1477 1475 1473 1471 1470 1467 1465 1463 1460 1458 1456 1454 1453 1451 1449
1511 1512 1512 1513 1513 1513 1513 1513 1512 1511 1510 1509 1508 1507 1505 1503 1501 1499 1496 1493 1490 1487 1485 1482 1480 1478 1476 1473 1471 1469 1467 1465 1463 1460 1458 1456 1454 1452 1449 1447 1446 1444 1442
1507 1508 1509 1509 1510 1510 1509 1509 1508 1507 1506 1504 1503 1502 1500 1498 1496 1493 1491 1488 1484 1481 1479 1477 1474 1472 1470 1468 1465 1463 1460 1458 1456 1453 1451 1448 1446 1444 1442 1440 1438 1436 1435
1504 1504 1505 1505 1505 1505 1505 1504 1503 1502 1501 1499 1497 1496 1494 1492 1489 1487 1485 1482 1479 1476 1473 1471 1468 1466 1464 1461 1458 1456 1453 1451 1449 1446 1443 1441 1439 1437 1435 1433 1431 1429 1427
1500 1500 1501 1501 1501 1500 1500 1499 1498 1497 1495 1493 1492 1490 1488 1486 1483 1481 1478 1476 1473 1470 1467 1464 1462 1459 1457 1454 1452 1449 1446 1444 1441 1439 1436 1433 1431 1429 1426 1424 1422 1421 1419
1495 1496 1496 1496 1496 1495 1494 1494 1492 1491 1489 1487 1485 1484 1482 1480 1477 1474 1471 1469 1466 1464 1461 1458 1455 1453 1450 1448 1445 1442 1439 1436 1434 1431 1428 1426 1423 1420 1418 1416 1414 1412 1410
1491 1491 1491 1491 1491 1490 1489 1488 1486 1485 1483 1481 1479 1477 1475 1472 1470 1467 1464 1462 1459 1456 1454 1451 1448 1445 1443 1441 1438 1435 1432 1429 1427 1424 1421 1417 1414 1412 1410 1407 1405 1404 1402
1486 1486 1486 1486 1485 1484 1483 1482 1480 1479 1476 1474 1472 1470 1467 1465 1462 1459 1457 1454 1452 1449 1446 1444 1441 1438 1436 1433 1430 1428 1425 1422 1419 1416 1413 1409 1406 1403 1401 1398 1396 1395 1393
1482 1481 1481 1480 1480 1478 1477 1475 1474 1472 1470 1467 1465 1462 1460 1457 1455 1452 1449 1447 1444 1441 1439 1436 1433 1430 1428 1425 1422 1419 1416 1414 1411 1408 1404 1401 1398 1395 1392 1390 1388 1386 1384
1477 1476 1476 1475 1474 1472 1471 1469 1467 1465 1462 1460 1457 1455 1452 1450 1447 1445 1442 1439 1436 1433 1431 1428 1425 1423 1420 1417 1414 1411 1408 1405 1402 1399 1396 1392 1389 1385 1383 1380 1378 1377 1375